SCP
0 0 0 0 0 0 0 0 0 0 0 0 0 0 0 0 0 0 0 0 0 0 0 0 0 0 0 1 1 1 1 1 1 1 0 0 0 0 0 0 0 0 0 0
0 0 0 0 0 0 0 0 0 0 0 0 0 0 0 0 0 0 0 0 0 0 0 0 0 0 0 0 1 1 1 1 1 1 1 1 0 0 0 0 0 0 0 0
0 0 0 0 0 0 0 0 0 0 0 0 0 0 0 0 0 0 0 0 0 0 0 0 1 0 0 0 0 1 1 1 1 1 1 1 0 0 0 0 0 0 0 0
0 0 0 0 0 0 0 0 0 0 0 0 0 0 0 0 0 0 0 0 0 0 0 1 1 1 0 0 0 1 1 1 1 1 1 1 0 0 0 0 0 0 0 0
0 0 0 0 0 0 0 0 0 0 0 0 0 0 0 0 0 0 0 0 0 0 0 1 1 1 0 0 1 1 1 1 1 1 1 1 0 0 0 0 0 0 0 0
0 0 0 0 0 0 0 0 0 0 0 0 0 0 0 0 0 0 0 0 0 0 0 0 1 1 1 1 1 1 1 1 1 1 1 1 0 0 0 0 0 0 0 0
0 0 0 0 0 0 0 0 0 0 0 0 0 0 0 0 0 0 0 0 0 0 0 0 1 1 1 1 1 1 1 1 1 0 0 0 0 0 0 0 0 0 0 0
0 0 0 0 0 0 0 0 0 0 0 0 0 0 0 0 0 0 0 0 0 0 0 0 0 1 1 1 1 1 1 1 0 0 0 0 0 0 0 0 0 0 0 0
0 0 0 0 0 0 0 0 0 0 0 0 0 0 0 0 0 0 0 0 0 0 0 0 0 0 0 0 1 1 1 1 0 0 0 0 0 0 0 0 0 0 0 0
0 0 0 0 0 0 0 0 0 0 0 0 0 0 0 0 0 0 0 0 0 0 0 0 0 0 0 0 1 1 1 1 0 0 0 0 0 0 0 0 0 0 0 0
0 0 0 0 0 0 0 0 0 0 0 0 0 0 0 0 0 0 0 0 0 0 0 0 0 0 0 0 0 0 0 0 0 0 0 0 0 0 0 0 0 0 0 0
0 0 0 0 0 0 0 0 0 0 0 0 0 0 0 0 0 0 0 0 0 0 0 0 0 0 0 0 0 0 0 0 0 0 0 0 0 0 0 0 0 0 0 0
0 0 0 0 0 0 0 0 0 0 0 0 0 0 0 0 0 0 0 0 0 0 0 0 0 0 1 1 1 0 0 0 0 0 0 0 0 0 0 0 0 0 0 0
0 0 0 0 0 0 0 0 0 0 0 0 0 0 0 0 0 0 0 0 0 0 0 0 1 1 1 1 1 1 0 0 0 0 0 0 0 0 0 0 0 0 0 0
0 0 0 0 0 0 0 0 0 0 0 0 0 0 0 0 0 0 0 0 0 0 0 0 1 1 1 1 1 1 0 0 0 0 0 0 0 0 0 0 0 0 0 0
0 0 0 0 0 0 0 0 0 0 0 0 0 0 0 0 0 0 0 0 0 0 0 0 1 1 1 1 1 1 0 0 0 0 0 0 0 0 0 0 0 0 0 0
0 0 0 0 0 0 0 0 0 0 0 0 0 0 0 0 0 0 0 0 0 0 0 0 0 1 1 1 1 0 0 0 0 0 0 0 0 0 0 0 0 0 0 0
0 0 0 0 0 0 0 0 0 0 0 0 0 0 0 0 0 0 0 0 0 0 0 0 0 1 1 1 0 0 0 0 0 0 0 0 0 0 0 0 0 0 0 0
0 0 0 0 0 0 0 0 0 0 0 0 0 0 0 0 0 0 0 0 0 0 0 0 0 0 1 1 0 0 0 0 0 0 0 0 0 0 0 0 0 0 0 0
0 0 0 0 0 0 0 0 0 0 0 0 0 0 0 0 0 0 0 0 0 0 0 0 0 0 1 1 1 1 0 0 0 0 0 0 0 0 0 1 0 0 0 0
0 0 0 0 0 0 0 0 0 0 0 0 0 0 0 0 0 0 0 0 0 0 0 0 0 0 1 1 1 1 0 0 0 0 0 0 0 0 1 1 1 0 0 0
0 0 0 0 0 0 0 0 0 0 0 0 0 0 0 0 0 0 0 0 0 0 0 0 0 0 1 1 1 1 0 0 0 0 0 0 1 1 1 1 1 0 0 0
0 0 0 0 0 0 0 0 0 0 0 0 0 0 0 0 0 0 0 0 0 0 0 0 0 0 0 0 1 0 0 0 0 1 1 1 1 1 1 1 1 0 0 0
0 0 0 0 0 0 0 0 0 0 0 0 0 0 0 0 0 0 0 0 0 0 0 0 0 0 0 0 0 0 0 0 1 1 1 1 1 1 1 0 0 0 0 0
0 0 0 0 0 0 0 0 0 0 0 0 0 0 0 0 0 0 0 0 0 0 0 0 0 0 0 0 0 0 0 1 1 1 1 1 1 1 1 0 0 0 0 0
0 0 0 0 0 0 0 0 0 0 0 0 0 0 0 0 0 0 0 0 0 0 0 0 0 0 0 0 0 0 0 1 1 1 1 1 1 1 1 0 0 0 0 0
Wind_Speed
9 10 10 8 8 6 5 7 6 4 3 5 6 5 3 3 4 4 4 5 5 6 6 6 7 7 8 8 9 9 8 7 6 5 5 5 5 4 4 4 5 5 4 4
10 11 8 6 7 8 8 9 7 5 4 4 5 5 4 3 4 4 4 4 5 5 6 6 6 6 8 9 9 9 8 8 7 5 4 4 4 4 4 3 4 5 5 4
12 4 6 8 9 10 10 10 7 6 5 7 7 7 7 5 4 4 4 3 4 4 5 6 6 7 7 8 8 7 7 7 6 6 4 4 4 3 4 4 4 5 5 5
10 6 7 9 9 10 9 7 8 8 9 7 8 7 6 6 6 4 3 3 3 4 5 6 6 6 7 7 7 7 7 7 6 6 6 7 5 5 4 4 4 4 5 5
8 8 9 10 8 9 6 5 7 9 9 9 9 9 5 6 6 5 4 3 3 4 5 6 6 6 6 6 6 6 6 7 7 7 6 6 6 5 3 4 3 4 4 4
7 6 7 7 6 8 6 6 7 9 10 11 8 9 5 5 4 4 4 4 3 3 4 4 5 5 6 6 6 6 6 6 6 7 7 7 6 5 4 4 4 4 3 3
10 9 8 7 8 10 10 9 7 9 9 7 6 8 4 2 2 2 3 4 4 3 3 4 4 5 5 6 6 6 6 6 6 6 6 6 6 6 6 5 5 4 3 3
9 10 10 9 10 8 11 12 9 7 7 5 7 7 3 4 3 3 3 3 4 3 3 3 4 4 5 5 6 6 6 6 5 5 5 5 5 4 4 5 4 4 3 3
6 6 7 7 7 10 11 11 9 10 8 7 6 5 5 6 5 4 4 4 4 4 3 3 3 4 4 5 5 6 6 5 5 5 4 4 4 4 4 4 4 4 3 3
5 6 6 7 8 8 9 8 8 10 9 9 7 8 6 8 7 5 4 4 4 4 3 3 3 3 4 4 5 4 5 5 4 4 4 3 4 4 4 4 4 3 4 3
7 7 7 10 10 9 9 10 9 9 9 9 7 3 3 4 6 6 5 4 4 3 3 3 3 4 5 5 5 4 4 4 3 3 3 3 3 4 4 4 4 4 4 4
6 7 8 8 6 5 9 9 10 9 9 9 9 1 5 3 6 5 5 4 4 3 4 4 4 4 4 4 4 4 4 4 3 3 3 3 2 3 3 4 3 4 4 4
4 7 9 9 10 10 10 10 10 10 9 9 10 3 6 5 5 5 5 4 4 3 3 4 4 4 4 4 3 3 3 3 3 3 3 3 3 3 3 3 3 3 4 4
5 7 10 10 5 5 9 10 11 12 11 11 10 6 5 5 5 4 4 4 4 3 3 3 3 4 4 3 3 3 3 3 3 3 3 3 3 3 3 2 3 3 4 4
5 8 9 9 7 7 9 10 11 13 13 12 8 6 4 3 3 3 3 3 3 3 3 3 3 3 3 3 3 3 2 2 3 3 3 3 3 3 2 2 2 3 3 4
4 7 8 9 9 7 9 10 11 12 12 11 9 6 1 1 2 3 4 3 3 3 3 3 2 3 3 3 3 3 3 2 3 3 3 2 2 3 3 3 2 3 3 3
5 6 8 10 9 9 11 8 9 10 9 9 9 5 2 3 3 3 3 3 3 2 2 2 2 2 2 2 3 3 3 3 3 3 3 3 3 3 3 3 3 3 3 3
6 7 7 8 9 13 3 1 4 6 6 5 4 3 1 2 2 2 2 3 2 2 2 1 1 2 2 2 2 3 3 3 3 3 3 2 2 3 3 3 3 3 3 3
6 7 7 8 10 8 4 3 3 6 5 2 3 3 2 2 3 3 2 2 2 1 1 1 1 1 2 1 2 2 2 3 3 2 2 2 2 3 3 3 3 3 3 3
5 6 8 8 10 8 2 3 1 5 6 1 1 2 2 4 5 2 2 1 1 1 1 1 1 1 1 1 1 2 2 2 2 2 2 3 3 3 4 4 4 3 4 4
6 6 9 9 9 3 3 2 2 7 0 3 2 2 3 4 3 2 1 1 1 1 1 1 1 1 1 1 2 2 2 2 3 3 3 3 3 4 4 4 4 4 4 4
5 5 7 7 9 3 4 0 1 4 4 2 2 2 2 2 1 0 1 1 2 2 1 1 1 0 1 1 2 2 1 2 2 2 2 3 3 3 2 3 3 4 4 4
3 3 2 2 1 5 3 3 3 3 3 3 3 3 3 2 2 2 1 1 1 2 1 1 1 1 2 2 2 1 1 2 2 2 2 2 3 3 2 3 3 4 4 4
1 2 3 2 1 1 2 2 3 3 4 4 3 3 3 3 3 2 2 1 2 2 2 2 2 2 2 2 2 2 2 2 2 3 3 2 3 3 3 3 3 3 3 3
2 3 3 4 2 2 1 3 4 4 3 3 3 3 3 3 3 2 2 2 1 1 1 2 2 2 2 2 2 3 3 3 3 3 3 3 3 3 3 3 3 4 3 3
3 4 4 3 2 4 3 3 4 4 3 3 3 3 3 2 3 2 2 1 1 1 2 2 2 2 2 2 2 3 3 3 3 3 3 3 3 3 3 3 3 3 4 3
Wind_Direction
195 216 216 211 228 259 252 244 233 211 178 216 220 223 208 190 199 199 192 188 186 183 176 175 181 180 176 175 176 179 180 173 177 179 187 189 193 200 201 204 196 199 206 210
203 219 222 221 225 236 237 236 226 195 177 228 222 229 218 197 202 207 208 202 197 184 170 170 175 181 182 182 183 182 183 179 185 183 192 196 201 214 209 210 188 201 202 209
227 210 200 218 219 228 232 239 234 218 203 218 234 228 204 186 190 187 204 202 190 186 174 172 181 185 186 186 186 183 181 178 187 183 189 189 193 216 207 205 200 203 203 209
232 224 211 222 225 232 234 227 237 228 232 224 233 247 194 188 188 188 195 190 180 181 179 181 183 183 184 183 178 175 172 173 182 190 196 200 207 213 211 213 202 199 203 209
215 211 218 226 228 231 240 221 231 234 243 249 227 249 209 193 207 192 182 187 184 185 186 188 186 181 180 174 170 166 166 173 181 193 197 204 219 219 206 205 197 211 198 206
233 216 228 231 220 215 207 205 216 228 237 239 230 244 235 200 207 187 171 172 176 178 179 177 171 170 167 167 167 164 163 173 180 192 199 206 218 219 208 203 201 208 199 202
214 207 204 215 211 195 214 222 220 217 220 227 200 232 240 142 162 176 157 151 156 161 166 167 167 166 163 167 171 167 165 172 180 187 199 205 213 212 212 212 208 214 209 202
216 205 194 206 226 218 215 232 245 251 245 220 191 226 183 145 139 138 137 139 140 148 156 161 164 167 162 161 168 167 169 174 178 185 195 201 206 212 212 215 222 215 222 212
233 213 172 202 221 233 217 228 252 262 264 252 209 187 170 154 157 149 144 141 134 136 140 142 151 160 157 156 160 170 170 169 177 185 188 193 201 213 216 208 219 218 218 215
259 240 197 186 202 213 247 234 229 244 251 248 224 214 201 177 177 166 159 148 135 131 131 133 139 151 151 150 148 158 161 167 174 182 193 189 194 207 215 215 212 220 225 223
244 244 211 200 215 214 206 215 232 244 255 261 251 217 114 167 171 169 160 148 138 138 135 139 145 147 147 147 148 152 157 161 170 182 191 189 198 209 212 215 217 216 223 220
229 251 241 220 204 247 234 232 226 239 241 246 265 215 99 144 156 155 147 135 128 127 129 136 141 142 148 151 154 157 159 167 171 173 183 184 195 210 217 216 219 215 219 221
220 233 236 213 199 205 222 228 236 246 254 250 251 205 120 137 146 145 135 130 134 132 125 132 141 147 151 150 153 155 161 164 165 168 173 176 190 199 215 224 221 213 216 222
256 242 249 257 268 222 222 226 232 239 245 248 246 232 176 160 161 156 145 141 142 139 138 145 150 153 151 151 156 161 163 163 168 174 177 175 189 201 210 216 222 217 215 218
250 243 245 259 267 255 245 242 236 239 253 260 257 246 230 190 182 169 163 159 156 155 153 158 158 147 149 151 157 166 171 172 180 190 191 189 191 196 198 204 212 220 220 216
245 251 246 246 242 242 249 250 243 242 248 253 254 257 275 151 156 172 176 178 179 176 169 165 162 150 150 154 165 174 184 189 192 201 205 204 205 204 205 204 214 224 224 217
234 240 248 247 239 242 241 251 249 239 244 250 250 255 189 179 185 197 193 188 190 181 173 174 169 159 162 169 182 184 185 187 192 205 216 215 217 219 220 217 216 226 225 223
248 248 252 250 237 239 229 347 268 253 251 267 264 260 239 225 212 185 186 185 190 182 182 174 160 154 157 164 174 177 178 185 195 207 219 218 226 227 229 229 230 234 231 230
233 240 249 248 238 236 204 193 246 246 243 266 264 249 224 213 200 176 153 179 204 200 189 177 160 148 141 149 170 177 183 193 202 213 226 231 234 231 232 235 238 239 233 232
197 231 246 245 248 242 137 86 304 248 221 80 300 252 233 214 226 185 125 193 197 112 108 142 150 137 138 156 179 179 176 197 217 227 233 239 240 235 238 235 234 233 232 232
194 209 233 245 248 248 59 33 237 235 87 34 322 288 258 250 312 36 117 165 148 130 129 144 150 146 177 201 181 186 204 227 239 244 237 237 239 237 238 234 231 228 233 234
241 232 225 240 242 228 58 184 288 11 20 351 326 309 295 291 320 148 166 158 151 144 144 136 140 182 230 229 206 201 228 246 240 236 227 227 237 243 238 226 230 233 233 231
256 300 288 282 342 52 35 26 13 344 332 337 332 322 301 277 263 241 203 176 174 182 184 193 202 226 235 236 235 236 245 264 255 239 235 234 244 251 254 241 231 225 222 234
193 287 249 236 200 34 10 2 354 338 327 323 316 304 286 267 256 240 200 190 194 198 202 214 218 222 231 233 246 250 251 255 254 247 245 248 250 253 251 250 243 243 235 240
302 269 246 237 246 277 315 350 344 334 325 320 323 314 291 261 245 231 198 211 222 229 241 238 240 240 246 253 258 259 255 249 250 251 251 251 250 253 259 258 266 259 256 271
258 268 269 272 276 279 290 320 327 323 318 318 313 312 310 274 243 233 216 228 244 248 248 250 254 267 279 281 274 272 262 252 252 254 258 257 257 256 255 256 255 241 250 251